Regional Weather Roundup
Issued by NWS

Home | Current Version | Previous Version | Text Only | Print | Product List | Glossary On
Versions: 1 2 3 4 5 6 7 8 9 10 11 12 13 14 15 16 17 18 19 20 21 22 23 24 25 26 27 28 29 30 31 32 33 34 35 36 37 38 39 40 41 42 43 44 45 46 47 48 49 50
000
ASUS43 KDTX 220701
RWRMI
MICHIGAN HOURLY REGIONAL WEATHER ROUNDUP
NATIONAL WEATHER SERVICE DETROIT/PONTIAC MI
300 AM EDT FRI SEP 22 2017

NOTE: "FAIR" INDICATES FEW OR NO CLOUDS BELOW 12,000 FEET WITH NO
SIGNIFICANT WEATHER AND/OR OBSTRUCTION TO VISIBILITY.

MIZ047>049-052>055-059>063-066>070-074>076-081>083-220800-
SOUTHEAST LOWER MICHIGAN

CITY           SKY/WX    TMP DP  RH WIND       PRES   REMARKS
ADRIAN         CLEAR     69  67  93 SE6       30.10R
ALMA           CLEAR     62  60  93 CALM      30.09S
ANN ARBOR      CLEAR     67  66  97 N5        30.10R
BAD AXE        CLEAR     68  63  84 CALM      30.11S
CARO           CLOUDY    66  64  93 CALM      30.10R
DETROIT CITY   CLEAR     68  65  90 CALM      30.10S
DETROIT        PTCLDY    71  66  84 CALM      30.10R
FLINT          CLEAR     63  60  90 CALM      30.10R
GROSSE ILE     CLEAR     69  65  87 CALM      30.09R
HILLSDALE      CLEAR     68  64  88 CALM      30.10S
HOWELL         CLEAR     67  64  90 CALM      30.11R

CITY           SKY/WX    TMP DP  RH WIND       PRES   REMARKS
JACKSON        CLEAR     70  64  81 CALM      30.10R
LAMBERTVILLE   CLEAR     70  67  92 CALM      30.08S FOG
LANSING        CLEAR     66  63  90 E3        30.10R
LAPEER         FAIR      64  62  93 CALM      30.11S
MASON          CLEAR     66  64  93 CALM      30.10S
MONROE         CLEAR     70  67  88 CALM      30.09R
MT. CLEMENS    CLEAR     66  66 100 CALM      30.09S
PONTIAC        CLEAR     68  66  93 CALM      30.10S
PORT HOPE        N/A     72  64  76 CALM      30.08R
PORT HURON     CLEAR     64  63  94 CALM      30.11S FOG
TRI CITIES     CLEAR     67  63  87 CALM      30.09R
MIDLAND        FAIR      63  63  99 CALM      30.08S
TROY           CLEAR     70  65  83 CALM      30.12S
SAGINAW HB     CLEAR     63  59  88 E3        30.09R
$$
MIZ043>046-050>051-056>058-064>065-071>073-077>080-220800-
SOUTHWEST LOWER MICHIGAN

CITY           SKY/WX    TMP DP  RH WIND       PRES   REMARKS
BATTLE CREEK   CLEAR     70  65  84 CALM      30.09R
BENTON HARBOR  CLEAR     73  67  81 SE5       30.05S
BIG RAPIDS     CLEAR     63  61  94 CALM      30.07S FOG
COLDWATER      CLEAR     69  68  94 E5        30.09R
FREMONT        FAIR      68  65  90 CALM      30.05S
HOLLAND        CLEAR     70  63  78 S3        30.06R
GRAND RAPIDS   CLEAR     69  64  84 E3        30.07R
IONIA          FAIR      65  64  97 E5        30.08S
KALAMAZOO      CLEAR     68  63  84 CALM      30.08S
LUDINGTON      CLEAR     65  64  97 CALM      30.03S FOG
MARSHALL       CLEAR     65  64  98 CALM      30.09S
MOUNT PLEASANT CLEAR     67  64  90 CALM      30.08S
MUSKEGON       CLEAR     72  65  78 SE7       30.05R
SOUTH HAVEN    CLEAR     72  66  83 CALM      30.05S
$$
MIZ016>042-220800-
NORTHERN LOWER MICHIGAN

CITY           SKY/WX    TMP DP  RH WIND       PRES   REMARKS
ALPENA         CLOUDY    61  61 100 S3        30.07R
BEAVER ISLAND  CLEAR     67  67 100 SE5       30.04S FOG
BELLAIRE       FOG       60  59  96 CALM      30.05S VSB 3/4
CADILLAC       CLEAR     64  60  88 CALM      30.08S
CHARLEVOIX     CLEAR     67  67 100 SE3       30.07S
FRANKFORT      CLEAR     65  65 100 CALM      30.03S
GAYLORD        CLEAR     63  61  93 CALM      30.08S FOG
GRAYLING       FOG       62  60  94 CALM      30.08F VSB<1/4
HARBOR SPRINGS CLEAR     64  63  95 NE3       30.04F FOG
HOUGHTON LAKE  CLOUDY    63  62  97 CALM      30.09S FOG
MANISTEE       CLEAR     65  64  97 E5        30.03S
OSCODA         CLEAR     67  66  95 SW5       30.07S
PELLSTON       FOG       59  59 100 NW3       30.06R VSB 1/4
ROGERS CITY    CLEAR     64  63  96 CALM      30.06S FOG
TRAVERSE CITY  CLEAR     66  63  90 CALM      30.03R
$$
MIZ007>008-015-220800-
EASTERN UPPER MICHIGAN

CITY           SKY/WX    TMP DP  RH WIND       PRES   REMARKS
KINROSS        CLEAR     64  64 100 SE7       30.06S FOG
MACKINAC ISLAN CLEAR     66  66 100 SE6       30.05S FOG
NEWBERRY       FOG       62  61  97 SE5       30.03F VSB 1
S. S. MARIE    PTCLDY    66  64  93 CALM      30.05S FOG
MUNISING         N/A     66  66 100 S6        29.99F
$$
MIZ004>006-011>014-085-220800-
CENTRAL UPPER MICHIGAN

CITY           SKY/WX    TMP DP  RH WIND       PRES   REMARKS
MANISTIQUE     CLEAR     65  59  81 SE6       30.02F
ESCANABA       FOG       63  63 100 CALM      30.01S VSB 1/4
MENOMINEE      FOG       65  65 100 S3        30.00F VSB 1/2
SAWYER-GWINN   FOG       63  63  98 S7        30.01F VSB 1/4
$$
MIZ001>003-009>011-084-220800-
WESTERN UPPER MICHIGAN

CITY           SKY/WX    TMP DP  RH WIND       PRES   REMARKS
IRON MOUNTAIN  CLOUDY    65  63  93 SE5       30.00F FOG
HOUGHTON       CLEAR     60  57  89 E8        29.95F
COPPER HARBOR    N/A     63  60  90 SW7       29.93F
IRONWOOD       CLEAR     71  65  81 S16G23    29.92F
$$

ABBREVIATIONS USED IN REMARKS
   TC - TEMPERATURE IN CELSIUS
  WCI - WIND CHILL INDEX
   HX - HEAT INDEX
  VSB - VISIBILITY




USA.gov is the U.S. government's official web portal to all federal, state and local government web resources and services.